Location: Balsareny
(41.8670°N, 1.8830°E)
Time: 12:18:19
(UTC+02:00)

N. Korean satellite - Visible Passes

Search period start: 25 September 2022 00:00
Search period end: 05 October 2022 00:00
Orbit: 428 x 468 km, 97.3° (Epoch: 24 September)

Date Brightness Start Highest point End Pass type
(mag) Time Alt. Az. Time Alt. Az. Time Alt. Az.
26 Sep 8.0 06:46:11 10° NNE 06:49:16 36° E 06:52:19 10° SSE visible
27 Sep 9.7 06:11:55 10° ENE 06:13:26 13° E 06:14:56 10° ESE visible
28 Sep 6.5 07:07:24 10° NNE 07:10:41 79° ESE 07:13:56 10° S visible
29 Sep 9.0 06:32:12 10° NE 06:34:54 23° E 06:37:34 10° SSE visible
01 Oct 7.5 06:52:58 10° NNE 06:56:08 46° E 06:59:17 10° S visible
02 Oct 9.6 06:18:09 10° NE 06:20:11 15° E 06:22:11 10° SE visible
03 Oct 6.2 07:13:54 10° N 07:17:10 83° WNW 07:20:26 10° SSW visible
04 Oct 8.6 06:38:21 10° NE 06:41:14 28° E 06:44:06 10° SSE visible
